RADCUBE (49067 NORAD) Tracking and Keplerian Element Data

This shows tracking and keplerian element data for the satellite.

Feedback or suggestion? Click here.




ElementValue
Catalog49067
NameRADCUBE
Epoch Orbit476
Epoch Day260.89804215
Epoch Year2021
RAAN334.0838
Inclination97.555
Eccentricity0.0028983
Argument of Perigee144.2151
Mean Anonmoly329.1013
Mean Motion15.07223595
Decay Rate2.123E-05
L11 49067U 21073B 21260.89804215 .00002123 00000-0 14381-3 0 9995
L22 49067 97.5550 334.0838 0028983 144.2151 329.1013 15.07223595 4761

Live tracking and technical data element details for RADCUBE (NORAD 49067). RADCUBE can be tracked NOW for your location showing map with azimuth and elevation plus other details from your city location.

Track the satellite on the map from your city or location and see movement details for azimuth, elevation, latitude, longitude, range, height, and movement on the map or in text.







IsCatalogInMostPopularTable: catalog: 49067, numindb: 4
Update: records affected: 1



GetName: 49067 RADCUBE

Hit Count: updated at: Fri, 24 Sep 2021 18:19:00 GMT